Location: Bosdarros
(43.2167°N, 0.3667°W)
Time: 01:48:21
(UTC+00:00)

Resurs 01 Rocket - Pass Details

Date: 22 April 2021
Orbit: 634 x 644 km, 97.9° (Epoch: 15 May)

Event Time Altitude Azimuth Distance (km) Brightness Sun altitude
Exits shadow 20:46:10 28° 177° (S) 1,198 2.6 -18.9°
Maximum altitude 20:48:27 75° 258° (WSW) 673 1.7 -19.2°
Drops below altitude 10° 20:52:55 10° 344° (NNW) 2,051 5.0 -19.8°
Sets 20:55:09 0° 346° (NNW) 2,965 6.0 -20.1°
